Girona, Spain

9:02 PM CEST on September 25, 2017 (GMT +0200)
Girona

Weather History for LEGE - December, 2013

Change the Weather History Date:

Wednesday, December 18, 2013

  Actual Average Record
Temperature  
Mean Temperature 50 °F -  
Max Temperature 60 °F 55 °F 66 °F (2014)
Min Temperature 39 °F 35 °F 26 °F (1999)
Degree Days  
Heating Degree Days 16    
Moisture  
Dew Point 45 °F    
Average Humidity 89    
Maximum Humidity 100    
Minimum Humidity 55    
Precipitation  
Precipitation 0.00 in 0.07 in - ()
Sea Level Pressure  
Sea Level Pressure 30.22 in    
Wind  
Wind Speed 3 mph ()    
Max Wind Speed 15 mph    
Max Gust Speed -    
Visibility 5.0 miles    
Events Fog    
Averages and records for this station are not official NWS values.
T = Trace of Precipitation, MM = Missing Value Source: Averaged Metar Reports

Daily Weather History Graph

Daily Weather History Graph

Search for Another Location

Airport or City:

Trip Planner

Search our weather history database for the weather conditions in past years. The results will help you decide how hot, cold, wet, or windy it might be!

Date:

Astronomy

Dec. 18, 2013 Rise Set
Actual Time 8:11 AM CET 5:19 PM CET
Civil Twilight 7:39 AM CET 5:51 PM CET
Nautical Twilight 7:04 AM CET 6:26 PM CET
Astronomical Twilight 6:30 AM CET 7:00 PM CET
Moon 6:39 PM CET (12/18) 8:39 AM CET (12/18)
Length of Visible Light 10h 11m
Length of Day
9h 08m
Full, 99% of the Moon is Illuminated
Dec 18
Full
Dec 25
Last Quarter
Jan 1
New
Jan 8
First Quarter
Jan 16
Full

Hourly Weather History & Observations

Time (CET) Temp. Windchill Dew Point Humidity Pressure Visibility Wind Dir Wind Speed Gust Speed Precip Events Conditions
12:00 AM 47 °F - 46 °F 94% 30.31 in - Calm Calm - -  
12:00 AM 46.4 °F - 46.4 °F 100% 30.30 in 5.0 mi Calm Calm - N/A   Partly Cloudy
12:30 AM 46.4 °F - 44.6 °F 93% 30.30 in 5.6 mi West 1.2 mph - N/A   Partly Cloudy
1:00 AM 47 °F - 46 °F 92% 30.29 in 5 mi WSW 2.3 mph - -   Mist
1:00 AM 46.4 °F - 46.4 °F 100% 30.30 in 5.0 mi Variable 2.3 mph - N/A   Partly Cloudy
1:30 AM 44.6 °F - 42.8 °F 93% 30.30 in 4.3 mi WSW 1.2 mph - N/A   Partly Cloudy
2:00 AM 44 °F - 44 °F 99% 30.29 in - WSW 3.5 mph - -  
2:00 AM 44.6 °F - 44.6 °F 100% 30.30 in 5.0 mi Variable 2.3 mph - N/A   Partly Cloudy
2:30 AM 41.0 °F - 41.0 °F 100% 30.27 in 5.0 mi West 2.3 mph - N/A   Partly Cloudy
3:00 AM 42 °F - 42 °F 99% 30.29 in - Calm Calm - -  
3:00 AM 42.8 °F - 42.8 °F 100% 30.27 in 3.7 mi Calm Calm - N/A   Partly Cloudy
3:30 AM 41.0 °F - 41.0 °F 100% 30.27 in 2.5 mi Variable 2.3 mph - N/A   Partly Cloudy
4:00 AM 43 °F - 43 °F 98% 30.29 in - NNE 1.2 mph - -  
4:00 AM 42.8 °F - 42.8 °F 100% 30.27 in 2.5 mi Variable 1.2 mph - N/A   Partly Cloudy
4:30 AM 42.8 °F - 42.8 °F 100% 30.27 in 2.5 mi NNE 2.3 mph - N/A   Partly Cloudy
5:00 AM 42 °F - 42 °F 100% 30.28 in - Calm Calm - -  
5:00 AM 42.8 °F - 42.8 °F 100% 30.27 in 2.5 mi Calm Calm - N/A   Partly Cloudy
5:30 AM 42.8 °F - 42.8 °F 100% 30.27 in 1.9 mi Calm Calm - N/A   Partly Cloudy
6:00 AM 42 °F - 42 °F 99% 30.27 in - Calm Calm - -  
6:00 AM 41.0 °F - 41.0 °F 100% 30.27 in 1.9 mi Calm Calm - N/A Fog Partly Cloudy
6:10 AM 42.8 °F - 42.8 °F 100% 30.27 in 2.5 mi Calm Calm - N/A Fog Partly Cloudy
6:30 AM 42.8 °F - 42.8 °F 100% 30.27 in 3.1 mi West 1.2 mph - N/A Fog Partly Cloudy
7:00 AM 40 °F - 40 °F 99% 30.28 in 4 mi Calm Calm - - Fog Light Fog
7:00 AM 39.2 °F - 39.2 °F 100% 30.27 in 3.7 mi Calm Calm - N/A Fog Patches of Fog
7:30 AM 39.2 °F - 39.2 °F 100% 30.27 in 3.7 mi Variable 1.2 mph - N/A Fog Patches of Fog
7:44 AM 41.0 °F - 41.0 °F 100% 30.27 in 0.1 mi Calm Calm - N/A Fog Fog
8:00 AM 41 °F - 41 °F 98% 30.29 in - Calm Calm - -  
8:00 AM 41.0 °F - 41.0 °F 100% 30.27 in 0.0 mi Calm Calm - N/A Fog Fog
8:30 AM 39.2 °F - 39.2 °F 100% 30.27 in 0.1 mi Calm Calm - N/A Fog Fog
9:00 AM 39 °F - 39 °F 98% 30.29 in - Calm Calm - -  
9:00 AM 39.2 °F - 39.2 °F 100% 30.27 in 6.2 mi Calm Calm - N/A   Scattered Clouds
9:30 AM 42.8 °F - 42.8 °F 100% 30.27 in 3.7 mi Calm Calm - N/A   Partly Cloudy
10:00 AM 44.6 °F - 44.6 °F 100% 30.30 in 1.9 mi Variable 1.2 mph - N/A   Partly Cloudy
10:30 AM 42.8 °F - 42.8 °F 100% 30.30 in 0.1 mi Variable 1.2 mph - N/A Fog Fog
11:00 AM 49 °F - 46 °F 87% 30.30 in - Calm Calm - -  
11:00 AM 46.4 °F - 46.4 °F 100% 30.30 in 3.1 mi Calm Calm - N/A   Scattered Clouds
11:30 AM 50.0 °F - 50.0 °F 100% 30.27 in 5.6 mi Variable 1.2 mph - N/A Fog Fog
12:00 PM 54 °F - 46 °F 67% 30.26 in - Calm Calm - -  
12:00 PM 51.8 °F - 46.4 °F 82% 30.27 in 6.2 mi Calm Calm - N/A   Partly Cloudy
12:30 PM 55.4 °F - 46.4 °F 72% 30.24 in 6.2 mi Variable 1.2 mph - N/A   Partly Cloudy
1:00 PM 58 °F - 49 °F 62% 30.22 in 12 mi South 5.8 mph - -   Scattered Clouds
1:00 PM 57.2 °F - 48.2 °F 72% 30.24 in 6.2 mi South 3.5 mph - N/A   Partly Cloudy
1:30 PM 57.2 °F - 48.2 °F 72% 30.21 in 6.2 mi South 5.8 mph - N/A   Partly Cloudy
2:00 PM 60 °F - 48 °F 56% 30.18 in - South 9.2 mph - -  
2:00 PM 59.0 °F - 48.2 °F 67% 30.18 in 6.2 mi South 8.1 mph - N/A   Partly Cloudy
2:30 PM 59.0 °F - 48.2 °F 67% 30.18 in 6.2 mi South 9.2 mph - N/A   Partly Cloudy
3:00 PM 60 °F - 48 °F 55% 30.17 in - South 10.4 mph - -  
3:00 PM 59.0 °F - 48.2 °F 67% 30.18 in 6.2 mi South 9.2 mph - N/A   Partly Cloudy
3:30 PM 57.2 °F - 48.2 °F 72% 30.15 in 6.2 mi South 10.4 mph - N/A   Partly Cloudy
4:00 PM 58 °F - 46 °F 55% 30.15 in 9 mi South 9.2 mph - -   Scattered Clouds
4:00 PM 57.2 °F - 46.4 °F 67% 30.15 in 6.2 mi South 9.2 mph - N/A   Partly Cloudy
4:30 PM 55.4 °F - 48.2 °F 77% 30.15 in 6.2 mi South 9.2 mph - N/A   Partly Cloudy
5:00 PM 53 °F - 47 °F 75% 30.15 in - South 5.8 mph - -  
5:00 PM 51.8 °F - 48.2 °F 88% 30.15 in 6.2 mi South 5.8 mph - N/A   Partly Cloudy
5:30 PM 51.8 °F - 46.4 °F 82% 30.15 in 6.2 mi South 5.8 mph - N/A   Partly Cloudy
6:00 PM 51 °F - 47 °F 83% 30.15 in - SW 4.6 mph - -  
6:00 PM 50.0 °F - 48.2 °F 94% 30.15 in 6.2 mi SW 3.5 mph - N/A   Partly Cloudy
6:30 PM 50.0 °F - 46.4 °F 87% 30.15 in 6.2 mi SW 4.6 mph - N/A   Partly Cloudy
7:00 PM 49 °F - 46 °F 87% 30.16 in 9 mi SSW 10.4 mph - -   Scattered Clouds
7:00 PM 50.0 °F - 46.4 °F 87% 30.15 in 6.2 mi SSW 10.4 mph - N/A   Partly Cloudy
7:30 PM 48.2 °F - 46.4 °F 93% 30.15 in 6.2 mi SSW 3.5 mph - N/A   Partly Cloudy
8:00 PM 47 °F - 45 °F 92% 30.16 in - South 9.2 mph - -  
8:00 PM 46.4 °F 42.4 °F 44.6 °F 93% 30.15 in 6.2 mi South 8.1 mph - N/A   Partly Cloudy
8:30 PM 48.2 °F - 44.6 °F 87% 30.15 in 6.2 mi SW 5.8 mph - N/A   Partly Cloudy
9:00 PM 49 °F - 45 °F 82% 30.14 in - SSW 11.5 mph - -  
9:00 PM 48.2 °F - 44.6 °F 87% 30.15 in 6.2 mi SSW 10.4 mph - N/A   Partly Cloudy
9:30 PM 48.2 °F - 44.6 °F 87% 30.12 in 6.2 mi SSW 10.4 mph - N/A   Partly Cloudy
10:00 PM 49 °F - 45 °F 80% 30.12 in 12 mi SSW 15.0 mph - -   Scattered Clouds
10:00 PM 48.2 °F - 44.6 °F 87% 30.12 in 6.2 mi SSW 15.0 mph - N/A   Partly Cloudy
10:30 PM 48.2 °F - 44.6 °F 87% 30.12 in 6.2 mi SSW 15.0 mph - N/A   Partly Cloudy
11:00 PM 49 °F - 45 °F 79% 30.11 in - SSW 15.0 mph - -  
11:00 PM 48.2 °F - 44.6 °F 87% 30.09 in 6.2 mi SSW 15.0 mph - N/A   Scattered Clouds
11:30 PM 50.0 °F - 44.6 °F 82% 30.09 in 6.2 mi SSW 15.0 mph - N/A   Scattered Clouds